Total_Precipitation_Accumulation
1.66 1.89 1.91 1.80 1.81 1.87 1.78 1.74 1.86 1.89 1.87 1.92 1.93 1.90 1.89 2.04 2.25 2.46 2.43 2.59 2.72 2.76 2.74 2.66 2.55 2.60 2.74 2.68 2.82 2.98 3.18 3.40 3.15 2.82 2.68 2.62 2.60 2.40 2.24 1.93 1.69 1.56 1.44
1.92 2.20 2.24 2.01 1.81 1.70 1.57 1.56 1.73 1.90 1.92 1.89 1.87 1.86 1.82 1.92 2.18 2.36 2.47 2.72 2.86 2.77 2.69 2.63 2.51 2.63 2.74 2.72 2.79 2.79 2.85 3.13 3.05 2.85 2.79 2.82 2.69 2.46 2.33 2.13 1.78 1.58 1.59
1.74 2.05 2.06 1.82 1.60 1.55 1.54 1.58 1.71 1.84 1.85 1.80 1.83 1.91 2.03 2.14 2.32 2.45 2.56 2.74 2.71 2.61 2.63 2.55 2.44 2.51 2.47 2.54 2.57 2.57 2.57 2.66 2.83 2.75 2.66 2.74 2.64 2.43 2.34 2.17 2.04 2.13 1.94
1.33 1.61 1.64 1.49 1.42 1.43 1.48 1.51 1.51 1.55 1.60 1.66 1.87 2.11 2.26 2.38 2.49 2.52 2.53 2.50 2.50 2.42 2.32 2.25 2.27 2.38 2.43 2.42 2.34 2.34 2.41 2.55 2.64 2.66 2.63 2.71 2.72 2.67 2.52 2.39 2.41 2.36 2.19
1.25 1.45 1.43 1.38 1.38 1.33 1.33 1.42 1.48 1.54 1.58 1.80 1.97 2.08 2.12 2.18 2.25 2.37 2.37 2.31 2.30 2.22 2.12 1.94 1.97 2.26 2.37 2.32 2.14 2.25 2.33 2.42 2.51 2.63 2.67 2.75 2.82 2.95 2.72 2.45 2.38 2.44 2.31
1.18 1.40 1.38 1.35 1.31 1.24 1.28 1.36 1.51 1.62 1.78 1.96 1.97 1.94 1.90 1.65 1.74 1.87 1.92 1.98 2.02 2.00 1.89 1.81 1.81 1.89 1.91 1.93 1.92 1.94 1.99 2.07 2.27 2.55 2.65 2.66 2.62 2.71 2.77 2.64 2.54 2.51 2.48
1.23 1.41 1.43 1.37 1.36 1.34 1.30 1.44 1.64 1.82 1.98 2.10 2.06 1.99 1.86 1.78 1.67 1.56 1.56 1.64 1.78 1.81 1.83 1.88 1.64 1.47 1.59 1.62 1.74 1.72 1.65 1.72 1.86 2.13 2.33 2.34 2.42 2.43 2.66 2.67 2.72 2.79 2.77
1.26 1.48 1.53 1.46 1.48 1.55 1.54 1.62 1.86 2.08 2.22 2.25 2.22 2.11 2.01 1.93 1.84 1.65 1.63 1.57 1.67 1.71 1.71 1.73 1.67 1.56 1.54 1.65 1.72 1.67 1.52 1.47 1.45 1.44 1.68 1.95 2.15 2.37 2.42 2.49 2.63 2.72 2.73
1.27 1.45 1.57 1.62 1.69 1.70 1.73 1.91 2.13 2.30 2.33 2.32 2.36 2.26 2.17 2.19 2.04 1.69 1.53 1.48 1.63 1.67 1.67 1.61 1.56 1.52 1.56 1.44 1.42 1.45 1.44 1.41 1.26 1.25 1.33 1.54 1.73 1.79 1.99 2.25 2.48 2.49 2.46
1.58 1.68 1.88 2.07 2.24 2.30 2.32 2.37 2.41 2.49 2.45 2.45 2.38 2.34 2.24 2.21 2.13 1.62 1.37 1.34 1.53 1.59 1.65 1.61 1.51 1.38 1.35 1.23 1.23 1.38 1.36 1.35 1.35 1.28 1.19 1.22 1.30 1.45 1.53 1.61 1.93 2.15 2.07
1.92 2.00 2.21 2.50 2.68 2.67 2.66 2.58 2.50 2.53 2.55 2.53 2.40 2.31 2.25 2.16 2.06 1.63 1.43 1.43 1.59 1.68 1.66 1.62 1.56 1.42 1.22 1.17 1.13 1.20 1.26 1.23 1.28 1.32 1.28 1.24 1.32 1.43 1.40 1.38 1.54 1.75 1.82
2.21 2.38 2.58 2.78 2.71 2.65 2.82 2.73 2.70 2.76 2.72 2.58 2.44 2.30 2.30 2.24 2.04 1.72 1.49 1.53 1.67 1.78 1.84 1.80 1.70 1.49 1.24 1.13 1.05 1.05 1.03 0.96 0.99 1.14 1.17 1.13 1.16 1.27 1.35 1.34 1.39 1.44 1.49
2.43 2.58 2.68 2.74 2.88 3.02 3.08 2.98 2.87 2.83 2.74 2.53 2.39 2.23 2.13 2.19 2.20 1.81 1.52 1.56 1.63 1.66 1.84 1.88 1.62 1.37 1.20 1.03 1.00 1.00 0.90 0.83 0.94 1.02 1.01 0.99 0.98 1.09 1.29 1.43 1.48 1.49 1.43
2.29 2.30 2.39 2.54 2.66 2.76 3.01 3.05 2.95 2.80 2.69 2.59 2.48 2.30 2.18 2.19 2.18 1.85 1.53 1.50 1.57 1.55 1.62 1.70 1.56 1.37 1.21 1.07 1.01 0.97 0.91 0.93 1.02 1.03 1.04 1.07 1.08 1.14 1.22 1.31 1.41 1.47 1.44
2.25 2.19 2.15 2.18 2.32 2.44 2.56 2.65 2.60 2.57 2.39 2.27 2.14 2.05 2.00 2.02 2.01 1.76 1.56 1.52 1.62 1.67 1.64 1.65 1.64 1.49 1.35 1.23 1.20 1.22 1.24 1.19 1.11 1.10 1.13 1.16 1.14 1.14 1.19 1.24 1.31 1.36 1.30
2.05 1.99 1.99 1.99 2.07 2.13 2.14 2.07 1.90 1.81 1.66 1.51 1.44 1.38 1.39 1.45 1.58 1.43 1.30 1.37 1.52 1.58 1.48 1.47 1.57 1.57 1.48 1.39 1.33 1.32 1.31 1.25 1.19 1.18 1.17 1.16 1.13 1.10 1.13 1.17 1.20 1.21 1.19
1.99 1.85 1.75 1.71 1.77 1.78 1.83 1.96 2.02 1.78 1.57 1.38 1.24 1.11 1.09 1.18 1.27 1.27 1.22 1.22 1.32 1.35 1.28 1.32 1.40 1.44 1.40 1.37 1.32 1.29 1.23 1.25 1.27 1.22 1.16 1.17 1.15 1.11 1.12 1.15 1.16 1.20 1.19
1.93 1.83 1.72 1.69 1.73 1.77 1.80 1.89 2.02 2.01 1.73 1.37 1.22 1.11 0.96 0.92 0.94 0.98 0.99 1.03 1.09 1.11 1.10 1.17 1.22 1.27 1.29 1.30 1.29 1.29 1.24 1.25 1.24 1.22 1.17 1.17 1.18 1.14 1.14 1.16 1.12 1.14 1.20
1.79 1.72 1.68 1.70 1.71 1.73 1.83 1.87 1.87 1.89 1.78 1.55 1.30 1.08 0.92 0.79 0.79 0.84 0.84 0.87 1.01 1.04 1.01 1.04 1.06 1.09 1.14 1.20 1.21 1.24 1.22 1.19 1.18 1.23 1.18 1.16 1.19 1.21 1.21 1.21 1.21 1.23 1.24
1.68 1.58 1.49 1.50 1.50 1.47 1.51 1.59 1.59 1.64 1.60 1.48 1.33 1.06 0.85 0.76 0.80 0.87 0.86 0.94 1.03 1.02 0.98 1.01 0.96 0.96 1.01 1.09 1.15 1.20 1.19 1.21 1.24 1.22 1.20 1.19 1.18 1.19 1.18 1.20 1.23 1.27 1.28
1.64 1.42 1.18 1.08 1.17 1.27 1.37 1.44 1.45 1.45 1.46 1.42 1.22 0.94 0.74 0.65 0.77 0.90 0.98 1.00 0.98 0.98 0.94 0.90 0.86 0.87 0.92 0.99 1.05 1.10 1.16 1.24 1.22 1.20 1.22 1.20 1.14 1.14 1.13 1.16 1.16 1.19 1.25
1.52 1.38 1.19 1.06 1.10 1.15 1.24 1.36 1.39 1.36 1.36 1.35 1.17 0.91 0.77 0.65 0.73 0.84 0.90 0.89 0.88 0.89 0.86 0.82 0.78 0.82 0.86 0.92 1.01 1.06 1.10 1.12 1.13 1.15 1.16 1.16 1.15 1.14 1.14 1.20 1.22 1.23 1.26
1.42 1.36 1.25 1.16 1.19 1.19 1.21 1.28 1.27 1.23 1.22 1.19 1.10 0.96 0.84 0.81 0.83 0.88 0.89 0.89 0.88 0.84 0.81 0.79 0.76 0.76 0.83 0.88 0.91 0.96 1.02 1.02 1.03 1.06 1.12 1.15 1.16 1.19 1.25 1.29 1.26 1.23 1.24
1.28 1.24 1.14 1.09 1.12 1.16 1.14 1.15 1.11 1.08 1.03 0.99 0.93 0.89 0.84 0.84 0.85 0.84 0.85 0.86 0.83 0.76 0.72 0.72 0.74 0.76 0.81 0.84 0.83 0.82 0.85 0.89 0.91 0.96 1.02 1.08 1.13 1.22 1.32 1.37 1.33 1.29 1.33
1.21 1.23 1.16 1.09 1.09 1.09 1.09 1.08 1.04 1.00 0.96 0.90 0.85 0.81 0.78 0.79 0.80 0.83 0.83 0.78 0.72 0.70 0.67 0.68 0.74 0.75 0.71 0.72 0.72 0.73 0.82 0.82 0.80 0.87 0.98 1.12 1.18 1.27 1.39 1.44 1.42 1.42 1.49
1.10 1.12 1.08 1.03 0.99 1.00 1.00 1.02 1.00 0.93 0.87 0.82 0.81 0.80 0.74 0.69 0.68 0.69 0.68 0.67 0.66 0.66 0.67 0.68 0.71 0.73 0.72 0.70 0.72 0.77 0.76 0.72 0.75 0.84 0.87 0.96 1.09 1.20 1.29 1.34 1.31 1.39 1.47